Flag for U.S.A. Weather past 2 weeks in Rancho Cucamonga, California, U.S.A.

66 °F

Broken clouds.

Feels Like: 66 °F
Forecast: 55 / 71 °F
Wind: 6 mph from Southwest

Location: Ontario International Airport

Current Time: Oct 4, 2015 at 7:18:29 PM

Latest Report: Oct 4, 2015 at 6:53 PM

Visibility: 10 mi

Pressure: 29.66 "Hg

Humidity: 59%

Dew point: 51 °F

Location of Rancho CucamongaLocation

Historic Weather in Rancho Cucamonga — Graph


Rancho Cucamonga temperature yesterday

Maximum temperature yesterday: 84 °F (at 2:53 PM)
Minimum temperature yesterday: 63 °F (at 5:53 AM)
Average temperature yesterday: 72 °F

Past Weeks' High & Low Weather Summary

High103 °F (Sep 20, 3:53 PM)90% (Oct 4, 6:53 AM)29.92 "Hg (Oct 4, 6:53 AM)
Low61 °F (Oct 4, 8:53 AM)14% (Sep 20, 1:53 PM)29.52 "Hg (Oct 3, 5:53 PM)
Average78 °F51%29.79 "Hg
* Reported Sep 19 5:53 PM — Oct 4 5:53 PM, Rancho Cucamonga, Weather by CustomWeather, © 2015

Note: Actual official high and low records may vary slightly from our data, if they occured in-between our weather recording intervals... More about our weather records


Rancho Cucamonga weather history for previous 24 hours

Time TempWeatherWind HumidityBarometerVisibility
5:53 PM
Sun, Oct 4
66 °FBroken clouds.3 mph61%29.65 "Hg10 mi
4:53 PM68 °FBroken clouds.No wind57%29.64 "Hg10 mi
3:53 PM66 °FBroken clouds.6 mph61%29.64 "Hg10 mi
2:53 PM67 °FBroken clouds.6 mph59%29.63 "Hg10 mi
1:53 PM67 °FPartly sunny.9 mph57%29.63 "Hg10 mi
12:53 PM66 °FPartly sunny.8 mph59%29.65 "Hg10 mi
11:53 AM64 °FCloudy.6 mph68%29.65 "Hg10 mi
10:53 AM65 °FBroken clouds.9 mph70%29.65 "Hg10 mi
9:53 AM62 °FPartly sunny.7 mph80%29.65 "Hg10 mi
8:53 AM61 °FCloudy.14 mph90%29.63 "Hg8 mi
7:53 AM62 °FLight rain. Cloudy.10 mph90%29.59 "Hg10 mi
6:53 AM64 °FMostly cloudy.3 mph90%29.57 "Hg9 mi
5:53 AM66 °FMostly cloudy.6 mph78%29.56 "Hg10 mi
4:53 AM66 °FOvercast.3 mph75%29.56 "Hg10 mi
3:53 AM66 °FMostly cloudy.No wind75%29.57 "Hg10 mi
2:53 AM66 °FMostly cloudy.5 mph73%29.57 "Hg10 mi
1:53 AM66 °FOvercast.No wind75%29.58 "Hg10 mi
12:53 AM64 °FPassing clouds.6 mph78%29.57 "Hg10 mi
11:53 PM
Sat, Oct 3
65 °FPassing clouds.8 mph78%29.57 "Hg10 mi
10:53 PM65 °FPassing clouds.12 mph81%29.58 "Hg10 mi
9:53 PM67 °FPassing clouds.10 mph76%29.57 "Hg10 mi
8:53 PM68 °FPassing clouds.7 mph70%29.57 "Hg10 mi
7:53 PM71 °FClear.8 mph63%29.55 "Hg10 mi
Weather by CustomWeather, © 2015

See weather overviewHow to use our weather pages